TimeEST,TemperatureF,Dew PointF,Humidity,Sea Level PressureIn,VisibilityMPH,Wind Direction,Wind SpeedMPH,Gust SpeedMPH,PrecipitationIn,Events,Conditions,WindDirDegrees,DateUTC
12:15 AM,53.6,53.6,100,30.19,10.0,North,13.8,20.7,N/A,,Overcast,350,2012-11-19 05:15:00
12:35 AM,53.6,53.6,100,30.18,10.0,North,13.8,18.4,N/A,,Overcast,360,2012-11-19 05:35:00
12:55 AM,53.6,53.6,100,30.18,10.0,North,13.8,20.7,N/A,,Overcast,350,2012-11-19 05:55:00
1:15 AM,53.6,53.6,100,30.18,10.0,North,13.8,23.0,N/A,,Overcast,360,2012-11-19 06:15:00
1:35 AM,53.6,53.6,100,30.17,5.0,North,13.8,21.9,N/A,,Overcast,360,2012-11-19 06:35:00
1:55 AM,53.6,53.6,100,30.16,10.0,North,16.1,20.7,N/A,,Overcast,360,2012-11-19 06:55:00
2:15 AM,51.8,51.8,100,30.16,10.0,North,13.8,20.7,N/A,,Overcast,360,2012-11-19 07:15:00
2:35 AM,51.8,51.8,100,30.17,10.0,North,13.8,20.7,N/A,,Overcast,360,2012-11-19 07:35:00
2:55 AM,51.8,51.8,100,30.16,10.0,North,13.8,20.7,N/A,,Overcast,360,2012-11-19 07:55:00
3:15 AM,51.8,51.8,100,30.16,7.0,North,13.8,25.3,N/A,,Overcast,360,2012-11-19 08:15:00
3:35 AM,51.8,51.8,100,30.16,10.0,North,15.0,23.0,N/A,,Overcast,360,2012-11-19 08:35:00
3:55 AM,51.8,51.8,100,30.15,10.0,North,17.3,26.5,N/A,,Overcast,360,2012-11-19 08:55:00
4:15 AM,51.8,51.8,100,30.15,10.0,North,16.1,23.0,N/A,,Overcast,10,2012-11-19 09:15:00
5:15 AM,51.8,51.8,100,30.16,10.0,North,12.7,23.0,N/A,,Overcast,350,2012-11-19 10:15:00
5:55 AM,51.8,51.8,100,30.16,10.0,North,17.3,24.2,N/A,,Overcast,360,2012-11-19 10:55:00
6:15 AM,51.8,51.8,100,30.17,10.0,North,11.5,17.3,N/A,,Overcast,360,2012-11-19 11:15:00
6:35 AM,51.8,51.8,100,30.17,10.0,North,15.0,20.7,N/A,,Overcast,360,2012-11-19 11:35:00
6:55 AM,51.8,51.8,100,30.17,10.0,North,13.8,19.6,N/A,,Overcast,10,2012-11-19 11:55:00
7:15 AM,51.8,51.8,100,30.17,10.0,North,10.4,20.7,N/A,,Overcast,360,2012-11-19 12:15:00
7:35 AM,51.8,51.8,100,30.17,10.0,North,12.7,18.4,N/A,,Overcast,350,2012-11-19 12:35:00
7:55 AM,51.8,51.8,100,30.18,10.0,North,13.8,21.9,N/A,,Overcast,360,2012-11-19 12:55:00
8:15 AM,51.8,51.8,100,30.18,10.0,North,10.4,16.1,N/A,,Overcast,350,2012-11-19 13:15:00
8:35 AM,53.6,51.8,94,30.19,10.0,North,11.5,19.6,N/A,,Overcast,360,2012-11-19 13:35:00
8:55 AM,53.6,51.8,94,30.20,10.0,North,8.1,18.4,N/A,,Overcast,350,2012-11-19 13:55:00
9:15 AM,53.6,51.8,94,30.20,10.0,North,11.5,17.3,N/A,,Overcast,360,2012-11-19 14:15:00
9:35 AM,53.6,51.8,94,30.21,10.0,North,11.5,16.1,N/A,,Overcast,350,2012-11-19 14:35:00
9:55 AM,53.6,53.6,100,30.20,10.0,North,10.4,18.4,N/A,,Overcast,360,2012-11-19 14:55:00
10:15 AM,53.6,51.8,94,30.21,10.0,North,12.7,20.7,N/A,,Overcast,360,2012-11-19 15:15:00
10:35 AM,55.4,51.8,88,30.20,10.0,North,13.8,-,N/A,,Overcast,360,2012-11-19 15:35:00
10:55 AM,55.4,51.8,88,30.19,10.0,North,12.7,21.9,N/A,,Overcast,10,2012-11-19 15:55:00
11:15 AM,55.4,53.6,94,30.19,10.0,North,12.7,20.7,N/A,,Overcast,360,2012-11-19 16:15:00
11:35 AM,55.4,53.6,94,30.18,10.0,North,16.1,-,N/A,,Overcast,10,2012-11-19 16:35:00
11:55 AM,57.2,51.8,82,30.18,10.0,North,15.0,19.6,N/A,,Overcast,360,2012-11-19 16:55:00
12:15 PM,57.2,51.8,82,30.18,10.0,North,13.8,19.6,N/A,,Overcast,350,2012-11-19 17:15:00
12:35 PM,59.0,51.8,77,30.17,10.0,North,12.7,20.7,N/A,,Overcast,350,2012-11-19 17:35:00
12:55 PM,59.0,51.8,77,30.16,10.0,North,15.0,24.2,N/A,,Overcast,10,2012-11-19 17:55:00
1:15 PM,57.2,51.8,82,30.16,10.0,North,12.7,20.7,N/A,,Overcast,360,2012-11-19 18:15:00
1:35 PM,57.2,51.8,82,30.15,10.0,North,13.8,-,N/A,,Overcast,360,2012-11-19 18:35:00
1:55 PM,59.0,53.6,82,30.14,10.0,North,12.7,19.6,N/A,,Overcast,360,2012-11-19 18:55:00
2:15 PM,59.0,53.6,82,30.13,10.0,North,12.7,19.6,N/A,,Overcast,360,2012-11-19 19:15:00
2:35 PM,59.0,53.6,82,30.13,10.0,NNW,12.7,18.4,N/A,,Overcast,340,2012-11-19 19:35:00
2:55 PM,59.0,53.6,82,30.12,10.0,North,12.7,19.6,N/A,,Overcast,10,2012-11-19 19:55:00
3:15 PM,59.0,53.6,82,30.11,10.0,North,10.4,19.6,N/A,,Overcast,350,2012-11-19 20:15:00
3:35 PM,59.0,53.6,82,30.12,10.0,NNW,11.5,18.4,N/A,,Overcast,340,2012-11-19 20:35:00
3:55 PM,59.0,53.6,82,30.12,10.0,North,10.4,17.3,N/A,,Overcast,350,2012-11-19 20:55:00
4:15 PM,59.0,53.6,82,30.13,10.0,North,10.4,17.3,N/A,,Overcast,350,2012-11-19 21:15:00
4:35 PM,59.0,53.6,82,30.13,10.0,North,6.9,-,N/A,,Overcast,350,2012-11-19 21:35:00
4:55 PM,59.0,53.6,82,30.13,10.0,North,8.1,-,N/A,,Overcast,350,2012-11-19 21:55:00
5:15 PM,57.2,53.6,88,30.14,10.0,North,11.5,-,N/A,,Overcast,360,2012-11-19 22:15:00
5:35 PM,57.2,53.6,88,30.14,10.0,NNW,10.4,16.1,N/A,,Overcast,340,2012-11-19 22:35:00
5:55 PM,57.2,53.6,88,30.15,10.0,NNW,8.1,-,N/A,,Overcast,340,2012-11-19 22:55:00
6:15 PM,57.2,53.6,88,30.15,10.0,NNW,9.2,-,N/A,,Overcast,330,2012-11-19 23:15:00
6:35 PM,57.2,53.6,88,30.16,10.0,North,11.5,-,N/A,,Overcast,350,2012-11-19 23:35:00
6:55 PM,55.4,51.8,88,30.16,10.0,North,9.2,16.1,N/A,,Overcast,360,2012-11-19 23:55:00
7:15 PM,55.4,51.8,88,30.16,10.0,North,10.4,16.1,N/A,,Overcast,360,2012-11-20 00:15:00
7:35 PM,55.4,51.8,88,30.16,10.0,North,9.2,19.6,N/A,,Overcast,360,2012-11-20 00:35:00
7:55 PM,55.4,51.8,88,30.15,10.0,North,10.4,-,N/A,,Overcast,10,2012-11-20 00:55:00
8:15 PM,55.4,51.8,88,30.15,10.0,North,10.4,17.3,N/A,,Overcast,360,2012-11-20 01:15:00
8:35 PM,55.4,51.8,88,30.15,10.0,North,9.2,-,N/A,,Overcast,360,2012-11-20 01:35:00
9:15 PM,53.6,51.8,94,30.15,10.0,North,6.9,-,N/A,,Scattered Clouds,360,2012-11-20 02:15:00
9:35 PM,53.6,51.8,94,30.14,10.0,NNW,6.9,-,N/A,,Scattered Clouds,340,2012-11-20 02:35:00
9:55 PM,53.6,51.8,94,30.14,10.0,North,6.9,-,N/A,,Clear,350,2012-11-20 02:55:00
10:15 PM,51.8,51.8,100,30.13,10.0,North,8.1,-,N/A,,Clear,360,2012-11-20 03:15:00
10:35 PM,51.8,51.8,100,30.12,10.0,North,8.1,-,N/A,,Clear,360,2012-11-20 03:35:00
10:55 PM,51.8,50.0,94,30.11,10.0,North,10.4,-,N/A,,Clear,360,2012-11-20 03:55:00
11:15 PM,51.8,50.0,94,30.12,10.0,North,9.2,-,N/A,,Scattered Clouds,360,2012-11-20 04:15:00
11:35 PM,51.8,50.0,94,30.10,10.0,North,6.9,-,N/A,,Scattered Clouds,350,2012-11-20 04:35:00